Regional Weather Roundup
Issued by NWS

Home | Current Version | Previous Version | Graphics & Text | Print | Product List | Glossary On
Versions: 1 2 3 4 5 6 7 8 9 10 11 12 13 14 15 16 17 18 19 20 21 22 23 24 25 26 27 28 29 30 31 32 33 34 35 36 37 38 39 40 41 42 43 44 45 46 47 48 49
000
ASUS45 KBOU 310107
RWRCO

WEATHER ROUNDUP FOR COLORADO
NATIONAL WEATHER SERVICE DENVER/BOULDER CO
600 PM MST FRI JAN 30 2015

NOTE: "FAIR" INDICATES FEW OR NO CLOUDS BELOW 12000 FEET WITH NO
SIGNIFICANT WEATHER AND/OR OBSTRUCTIONS TO VISIBILITY.

COZ001>005-013-030-031-310200-
...NORTHWEST COLORADO...

CITY           SKY/WX    TMP DP  RH WIND       PRES   REMARKS
CRAIG          CLOUDY    37  31  78 W5        30.03F
HAYDEN         CLOUDY    36  28  75 CALM      30.02F
MEEKER         LGT RAIN  35  33  92 CALM      30.00F
MOUNT WERNER   NOT AVBL
STEAMBOAT SPGS CLOUDY    34  29  82 CALM      30.02S
WALDEN         CLOUDY    34  27  75 NE13      30.05S WCI  25
$$

COZ006>008-011-310200-
...WEST CENTRAL VALLEYS...

CITY           SKY/WX    TMP DP  RH WIND       PRES   REMARKS
GRAND JUNCTION CLOUDY    41  37  86 S3        29.97F
MONTROSE       CLOUDY    40  36  86 CALM      30.00F
EAGLE          FLURRIES  36  34  93 CALM      30.04F
RIFLE          LGT RAIN  39  36  89 S3        29.99F
DELTA          DRIZZLE   43  40  91 CALM      29.99S
NUCLA          DRIZZLE   36  36 100 S3        30.03S
$$

COZ017>023-064>068-310200-
...SOUTHWEST COLORADO...

CITY           SKY/WX    TMP DP  RH WIND       PRES   REMARKS
DURANGO        FLURRIES  32  32 100 E3        30.04S
CORTEZ         LGT RAIN  38  34  85 SW5       30.00S
PAGOSA SPRINGS LGT SNOW  33  33 100 CALM      30.05F
TELLURIDE      CLOUDY    33  32  98 W3        30.00F
WOLF CREEK PAS SNOW      23  23 100 SW14G21   30.12F VSB 1/4 WCI  11
$$

COZ009-010-012-014-032>034-037-058>063-310200-
...CENTRAL COLORADO...

CITY           SKY/WX    TMP DP  RH WIND       PRES   REMARKS
ASPEN          CLOUDY    33  29  85 N3        30.00S
BUENA VISTA    LGT SNOW  32  31  96 CALM      30.09S
COPPER MTN     LGT SNOW  28  23  80 SE7       30.08F WCI  21
BERTHOUD PASS  HAZE      16  10  79 SE31      30.12S VSB<1/4 WCI  -5
COTTONWOOD PAS LGT SNOW  30  28  93 CALM      30.09S
GUNNISON       CLOUDY    34  28  80 N6        30.05S WCI  29
KREMMLING      CLOUDY    32  23  69 CALM      30.06S
LEADVILLE      SNOW      25  25 100 S9        30.05F VSB 1/2 WCI  15
MONARCH PASS   SNOW      23  21  93 MISG      30.20F VSB<1/4
SALIDA         CLOUDY    33  32  96 CALM      30.15S
SUNLIGHT       LGT SNOW  30  28  93 CALM        N/A
WILKERSON PASS SNOW      21  19  93 E8        30.14S VSB 1/2 WCI  12
$$

COZ069>075-310200-
...SAN LUIS VALLEY/SANGRE DE CRISTO MOUNTAINS...

CITY           SKY/WX    TMP DP  RH WIND       PRES   REMARKS
ALAMOSA        LGT SNOW  30  29  96 CALM      30.08S FOG
LA VETA PASS   LGT SNOW  27  27 100 S5        30.10R WCI  21
SAGUACHE       CLOUDY    30  28  93 E3        30.10S
$$

COZ035-036-038>040-310200-
...NORTHERN COLORADO FRONT RANGE...

CITY           SKY/WX    TMP DP  RH WIND       PRES   REMARKS
DENVER INTL AP CLOUDY    41  27  57 N7        30.08S
DMNS CITY PARK   N/A     44  25  46 N5        30.08R
AURORA         CLOUDY    40  26  57 N5        30.09R
FRONT RANGE AP NOT AVBL
ERIE MUNI ARPT CLOUDY    44  26  48 CALM      30.09R
BOULDER MUN AP CLOUDY    45  27  49 E3        30.08R
CENTENNIAL     CLOUDY    42  26  53 N9        30.08S
BROOMFIELD     CLOUDY    45  27  49 N6        30.10R
FORT COLLINS   CLOUDY    43  28  56 CALM      30.11R
LONGMONT       CLOUDY    46  28  50 E3        30.11R
$$

COZ041-046-047-076>085-087-088-310200-
...PIKES PEAK/PALMER DIVIDE AND SOUTHERN FOOTHILLS...

CITY           SKY/WX    TMP DP  RH WIND       PRES   REMARKS
COLO. SPRINGS  CLOUDY    39  26  59 CALM      30.08R
A. F. ACADEMY  CLOUDY    41  23  50 N8        30.07R
ELLICOTT       CLOUDY   N/A N/A N/A CALM      30.07R
FALCON         CLOUDY    36  27  70 CALM      30.09R
FORT CARSON    CLOUDY    38  28  67 CALM      30.06R
LIMON          CLOUDY    36  30  79 S6        30.06F
MONUMENT HILL  CLOUDY    34  25  69 N3        30.07S
TRINIDAD       CLOUDY    36  32  85 W15       30.06S
$$

COZ042>045-048>051-090-091-310200-
...NORTHEAST COLORADO...

CITY           SKY/WX    TMP DP  RH WIND       PRES   REMARKS
GREELEY ARPT   CLOUDY    41  27  56 NE3       30.08S
AKRON          CLOUDY    38  29  70 N7        30.06S
BURLINGTON     CLOUDY    35  31  85 S13G22    30.12S WCI  26
WRAY           CLOUDY    40  34  77 S10       30.11R
STERLING       CLOUDY    37  32  81 N6        30.07S
HOLYOKE        NOT AVBL
FORT MORGAN    CLOUDY    39  29  68 N6        30.08S
$$

COZ086-089-092>099-310200-
...SOUTHEAST COLORADO...

CITY           SKY/WX    TMP DP  RH WIND       PRES   REMARKS
PUEBLO         CLOUDY    41  35  79 CALM      30.06S
LA JUNTA       CLOUDY    39  37  92 E5        30.07S
LAMAR          CLOUDY    37  35  92 S10       30.10F
SPRINGFIELD      N/A     32  32 100 S25G31    30.11F WCI  19
$$


USA.gov is the U.S. government's official web portal to all federal, state and local government web resources and services.